Location: Unspecified
(0.0000°N, 0.0000°E)
Time: 02:41:27
(UTC+00:00)

ESSA 4 - Pass Details

Date: 05 November 2024
Orbit: 1326 x 1439 km, 102.1° (Epoch: 03 December)

Event Time Altitude Azimuth Distance (km) Brightness Sun altitude
Rises 04:50:01 0° 180° (S) 4,343 12.1 -12.9°
Reaches altitude 10° 04:52:55 10° 187° (S) 3,363 11.4 -12.2°
Maximum altitude 04:59:58 40° 253° (WSW) 1,869 9.6 -10.5°
Drops below altitude 10° 05:07:02 10° 320° (NW) 3,359 10.8 -8.8°
Sets 05:09:57 0° 327° (NNW) 4,337 11.4 -8.1°
